User: anonymous   Login
Location: Deer Lake
(49.1830°N, 57.4330°W)
Time: 04:18:59
(UTC-02:-30)
Language:

Cosmos 1707 - Orbit

View from above orbital plane
View from above orbital plane
View from above satellite
View from above satellite

Ground track
Ground track

The orbit data is extracted from the following two-line orbital elements,

1 16326U 85113A   16150.24131875  .00000604  00000-0  32749-4 0  9999
2 16326  82.5128 225.3122 0010936 178.2944 181.8326 15.12629506659294
Epoch (UTC): 29 May 2016 05:47:29
Eccentricity: 0.0010936
inclination: 82.5128°
perigee height: 520 km
apogee height: 536 km
right ascension of ascending node: 225.3122°
argument of perigee: 178.2944°
revolutions per day: 15.12629506
mean anomaly at epoch: 181.8326°
orbit number at epoch: 65929

The dashed part of the orbit path shows where the satellite is in the earth's shadow,  

DLR